Time,TemperatureF,DewpointF,PressureIn,WindDirection,WindDirectionDegrees,WindSpeedMPH,WindSpeedGustMPH,Humidity,HourlyPrecipIn,Conditions,Clouds,dailyrainin,SoftwareType,DateUTC
2013-12-07 00:04:00,14.0,8.5,30.49,NNW,338,4.0,4.0,78,0.00,,,0.00,WUHU216HW,2013-12-07 06:04:00,
2013-12-07 00:10:00,13.9,8.3,30.49,NNW,338,3.4,4.9,78,0.00,,,0.00,WUHU216HW,2013-12-07 06:10:00,
2013-12-07 00:15:00,13.9,8.3,30.49,NNW,331,3.6,4.9,78,0.00,,,0.00,WUHU216HW,2013-12-07 06:15:00,
2013-12-07 00:21:00,13.9,8.3,30.49,West,270,3.4,4.9,78,0.00,,,0.00,WUHU216HW,2013-12-07 06:21:00,
2013-12-07 00:26:00,13.9,8.3,30.49,NW,307,4.3,5.8,78,0.00,,,0.00,WUHU216HW,2013-12-07 06:26:00,
2013-12-07 00:31:00,13.7,8.1,30.49,NW,320,3.4,5.8,78,0.00,,,0.00,WUHU216HW,2013-12-07 06:31:00,
2013-12-07 00:37:00,13.7,8.1,30.49,NNW,331,3.6,5.8,78,0.00,,,0.00,WUHU216HW,2013-12-07 06:37:00,
2013-12-07 00:42:00,13.7,8.1,30.49,NNW,338,3.6,5.8,78,0.00,,,0.00,WUHU216HW,2013-12-07 06:42:00,
2013-12-07 00:47:00,13.7,8.1,30.49,NNW,338,4.3,6.3,78,0.00,,,0.00,WUHU216HW,2013-12-07 06:47:00,
2013-12-07 00:52:00,13.5,7.9,30.49,North,0,4.7,6.3,78,0.00,,,0.00,WUHU216HW,2013-12-07 06:52:00,
2013-12-07 00:58:00,13.5,7.9,30.49,NNW,338,3.8,6.3,78,0.00,,,0.00,WUHU216HW,2013-12-07 06:58:00,
2013-12-07 01:04:00,13.5,8.2,30.49,North,0,3.6,7.4,79,0.00,,,0.00,WUHU216HW,2013-12-07 07:04:00,
2013-12-07 01:09:00,13.3,8.0,30.49,NW,315,4.5,7.4,79,0.00,,,0.00,WUHU216HW,2013-12-07 07:09:00,
2013-12-07 01:15:00,13.3,8.0,30.49,NW,308,5.8,7.2,79,0.00,,,0.00,WUHU216HW,2013-12-07 07:15:00,
2013-12-07 01:21:00,13.3,8.0,30.49,NNW,338,5.1,7.2,79,0.00,,,0.00,WUHU216HW,2013-12-07 07:21:00,
2013-12-07 01:27:00,13.3,8.0,30.50,NNW,338,4.9,5.4,79,0.00,,,0.00,WUHU216HW,2013-12-07 07:27:00,
2013-12-07 01:32:00,13.1,7.8,30.50,NNW,329,3.9,5.4,79,0.00,,,0.00,WUHU216HW,2013-12-07 07:32:00,
2013-12-07 01:37:00,13.0,7.9,30.50,WNW,294,1.9,5.4,80,0.00,,,0.00,WUHU216HW,2013-12-07 07:37:00,
2013-12-07 01:43:00,13.0,7.9,30.50,NW,325,3.4,4.7,80,0.00,,,0.00,WUHU216HW,2013-12-07 07:43:00,
2013-12-07 01:48:00,12.8,7.7,30.50,NNW,338,3.1,4.0,80,0.00,,,0.00,WUHU216HW,2013-12-07 07:48:00,
2013-12-07 01:53:00,12.8,7.7,30.50,NW,321,2.1,3.1,80,0.00,,,0.00,WUHU216HW,2013-12-07 07:53:00,
2013-12-07 02:00:00,12.8,7.7,30.50,NW,317,2.7,3.4,80,0.00,,,0.00,WUHU216HW,2013-12-07 08:00:00,
2013-12-07 02:06:00,12.6,7.6,30.51,North,0,2.5,3.6,80,0.00,,,0.00,WUHU216HW,2013-12-07 08:06:00,
2013-12-07 02:11:00,12.6,7.6,30.51,North,0,3.1,3.6,80,0.00,,,0.00,WUHU216HW,2013-12-07 08:11:00,
2013-12-07 02:17:00,12.8,7.7,30.51,NNW,335,1.8,3.4,80,0.00,,,0.00,WUHU216HW,2013-12-07 08:17:00,
2013-12-07 02:22:00,12.6,7.6,30.51,WNW,293,3.1,3.1,80,0.00,,,0.00,WUHU216HW,2013-12-07 08:22:00,
2013-12-07 02:28:00,12.6,7.6,30.51,North,0,3.4,3.6,80,0.00,,,0.00,WUHU216HW,2013-12-07 08:28:00,
2013-12-07 02:33:00,12.6,7.6,30.51,NNW,338,2.5,4.3,80,0.00,,,0.00,WUHU216HW,2013-12-07 08:33:00,
2013-12-07 02:39:00,12.6,7.6,30.51,NNW,332,2.1,4.5,80,0.00,,,0.00,WUHU216HW,2013-12-07 08:39:00,
2013-12-07 02:45:00,12.6,7.6,30.51,WNW,293,1.8,4.5,80,0.00,,,0.00,WUHU216HW,2013-12-07 08:45:00,
2013-12-07 02:51:00,12.6,7.6,30.51,NW,319,1.8,3.6,80,0.00,,,0.00,WUHU216HW,2013-12-07 08:51:00,
2013-12-07 02:56:00,12.6,7.6,30.51,NW,323,2.1,4.0,80,0.00,,,0.00,WUHU216HW,2013-12-07 08:56:00,
2013-12-07 03:02:00,12.4,7.4,30.51,NNW,338,2.7,4.0,80,0.00,,,0.00,WUHU216HW,2013-12-07 09:02:00,
2013-12-07 03:08:00,12.4,7.4,30.51,NNW,338,2.7,4.5,80,0.00,,,0.00,WUHU216HW,2013-12-07 09:08:00,
2013-12-07 03:14:00,12.2,7.2,30.51,NW,325,3.9,4.5,80,0.00,,,0.00,WUHU216HW,2013-12-07 09:14:00,
2013-12-07 03:19:00,12.2,7.2,30.51,NW,315,2.5,4.5,80,0.00,,,0.00,WUHU216HW,2013-12-07 09:19:00,
2013-12-07 03:24:00,12.2,7.2,30.52,NW,320,2.3,2.9,80,0.00,,,0.00,WUHU216HW,2013-12-07 09:24:00,
2013-12-07 03:30:00,12.1,7.0,30.52,NW,312,2.1,3.4,80,0.00,,,0.00,WUHU216HW,2013-12-07 09:30:00,
2013-12-07 03:35:00,12.1,7.3,30.52,North,0,3.6,3.6,81,0.00,,,0.00,WUHU216HW,2013-12-07 09:35:00,
2013-12-07 03:41:00,11.9,7.1,30.52,NW,315,2.5,3.6,81,0.00,,,0.00,WUHU216HW,2013-12-07 09:41:00,
2013-12-07 03:46:00,11.9,7.1,30.53,NW,324,1.6,3.1,81,0.00,,,0.00,WUHU216HW,2013-12-07 09:46:00,
2013-12-07 03:52:00,11.9,7.1,30.53,WNW,293,2.5,3.1,81,0.00,,,0.00,WUHU216HW,2013-12-07 09:52:00,
2013-12-07 03:57:00,11.7,6.9,30.53,NNW,331,1.9,2.7,81,0.00,,,0.00,WUHU216HW,2013-12-07 09:57:00,
2013-12-07 04:03:00,11.7,6.9,30.53,NNW,338,2.7,2.7,81,0.00,,,0.00,WUHU216HW,2013-12-07 10:03:00,
2013-12-07 04:09:00,11.5,6.8,30.53,NW,315,2.0,3.4,81,0.00,,,0.00,WUHU216HW,2013-12-07 10:09:00,
2013-12-07 04:14:00,11.5,6.8,30.53,NW,315,2.5,3.1,81,0.00,,,0.00,WUHU216HW,2013-12-07 10:14:00,
2013-12-07 04:20:00,11.5,6.8,30.53,NW,324,2.9,3.8,81,0.00,,,0.00,WUHU216HW,2013-12-07 10:20:00,
2013-12-07 04:25:00,11.5,6.5,30.53,NW,315,3.1,3.8,80,0.00,,,0.00,WUHU216HW,2013-12-07 10:25:00,
2013-12-07 04:30:00,11.3,6.3,30.54,NNW,334,2.8,3.4,80,0.00,,,0.00,WUHU216HW,2013-12-07 10:30:00,
2013-12-07 04:36:00,11.3,6.3,30.54,NW,319,2.4,3.6,80,0.00,,,0.00,WUHU216HW,2013-12-07 10:36:00,
2013-12-07 04:42:00,11.2,6.4,30.54,NNW,328,2.7,4.7,81,0.00,,,0.00,WUHU216HW,2013-12-07 10:42:00,
2013-12-07 04:48:00,11.2,6.4,30.55,North,0,1.3,4.7,81,0.00,,,0.00,WUHU216HW,2013-12-07 10:48:00,
2013-12-07 04:54:00,11.0,6.2,30.55,NW,315,2.7,4.7,81,0.00,,,0.00,WUHU216HW,2013-12-07 10:54:00,
2013-12-07 04:59:00,11.0,6.2,30.55,NW,312,2.0,4.7,81,0.00,,,0.00,WUHU216HW,2013-12-07 10:59:00,
2013-12-07 05:04:00,11.0,5.9,30.55,NW,310,2.4,4.7,80,0.00,,,0.00,WUHU216HW,2013-12-07 11:04:00,
2013-12-07 05:09:00,11.0,5.9,30.55,NW,318,2.5,3.4,80,0.00,,,0.00,WUHU216HW,2013-12-07 11:09:00,
2013-12-07 05:15:00,10.8,5.8,30.55,NNW,334,2.3,4.0,80,0.00,,,0.00,WUHU216HW,2013-12-07 11:15:00,
2013-12-07 05:21:00,10.8,5.8,30.55,NNW,338,3.4,3.4,80,0.00,,,0.00,WUHU216HW,2013-12-07 11:21:00,
2013-12-07 05:26:00,10.8,5.8,30.55,North,352,1.6,3.4,80,0.00,,,0.00,WUHU216HW,2013-12-07 11:26:00,
2013-12-07 05:33:00,10.6,5.6,30.55,North,0,2.5,3.4,80,0.00,,,0.00,WUHU216HW,2013-12-07 11:33:00,
2013-12-07 05:39:00,10.6,5.6,30.55,North,0,3.1,3.4,80,0.00,,,0.00,WUHU216HW,2013-12-07 11:39:00,
2013-12-07 05:44:00,10.6,5.6,30.56,NNW,338,2.5,4.3,80,0.00,,,0.00,WUHU216HW,2013-12-07 11:44:00,
2013-12-07 05:50:00,10.4,5.4,30.56,NNW,331,2.1,4.3,80,0.00,,,0.00,WUHU216HW,2013-12-07 11:50:00,
2013-12-07 05:55:00,10.4,5.1,30.56,NNW,335,2.1,3.4,79,0.00,,,0.00,WUHU216HW,2013-12-07 11:55:00,
2013-12-07 06:00:00,10.4,5.1,30.56,NW,315,3.4,5.1,79,0.00,,,0.00,WUHU216HW,2013-12-07 12:00:00,
2013-12-07 06:06:00,10.4,4.9,30.56,NNW,338,4.3,5.1,78,0.00,,,0.00,WUHU216HW,2013-12-07 12:06:00,
2013-12-07 06:10:00,10.4,4.9,30.57,NNW,338,3.4,4.3,78,0.00,,,0.00,WUHU216HW,2013-12-07 12:10:00,
2013-12-07 06:16:00,10.4,4.9,30.57,NNW,329,3.0,4.5,78,0.00,,,0.00,WUHU216HW,2013-12-07 12:16:00,
2013-12-07 06:21:00,10.3,4.7,30.58,NNW,335,1.9,4.5,78,0.00,,,0.00,WUHU216HW,2013-12-07 12:21:00,
2013-12-07 06:26:00,10.3,4.7,30.58,NW,323,2.1,3.4,78,0.00,,,0.00,WUHU216HW,2013-12-07 12:26:00,
2013-12-07 06:31:00,10.1,4.5,30.58,NNE,23,4.7,4.7,78,0.00,,,0.00,WUHU216HW,2013-12-07 12:31:00,
2013-12-07 06:37:00,10.1,4.5,30.58,NNW,345,2.8,4.7,78,0.00,,,0.00,WUHU216HW,2013-12-07 12:37:00,
2013-12-07 06:42:00,9.9,4.3,30.59,NNW,328,2.7,4.0,78,0.00,,,0.00,WUHU216HW,2013-12-07 12:42:00,
2013-12-07 06:47:00,9.9,4.3,30.58,NNW,333,3.7,4.7,78,0.00,,,0.00,WUHU216HW,2013-12-07 12:47:00,
2013-12-07 06:52:00,9.9,4.3,30.58,NNW,338,3.6,4.7,78,0.00,,,0.00,WUHU216HW,2013-12-07 12:52:00,
2013-12-07 06:57:00,9.9,4.6,30.58,NNW,338,3.8,4.0,79,0.00,,,0.00,WUHU216HW,2013-12-07 12:57:00,
2013-12-07 07:03:00,9.9,4.6,30.58,NW,315,2.9,4.5,79,0.00,,,0.00,WUHU216HW,2013-12-07 13:03:00,
2013-12-07 07:08:00,9.7,4.5,30.58,North,349,2.8,4.7,79,0.00,,,0.00,WUHU216HW,2013-12-07 13:08:00,
2013-12-07 07:13:00,9.7,4.5,30.59,NNW,332,3.5,4.7,79,0.00,,,0.00,WUHU216HW,2013-12-07 13:13:00,
2013-12-07 07:19:00,9.7,4.5,30.59,WNW,293,3.4,4.5,79,0.00,,,0.00,WUHU216HW,2013-12-07 13:19:00,
2013-12-07 07:24:00,9.7,4.5,30.59,NNW,338,1.8,4.0,79,0.00,,,0.00,WUHU216HW,2013-12-07 13:24:00,
2013-12-07 07:29:00,9.7,4.5,30.59,NNW,338,2.9,3.6,79,0.00,,,0.00,WUHU216HW,2013-12-07 13:29:00,
2013-12-07 07:34:00,9.7,4.5,30.59,NW,315,4.3,4.3,79,0.00,,,0.00,WUHU216HW,2013-12-07 13:34:00,
2013-12-07 07:39:00,9.9,4.6,30.59,NW,315,3.4,6.0,79,0.00,,,0.00,WUHU216HW,2013-12-07 13:39:00,
2013-12-07 07:44:00,9.9,5.0,30.59,NNW,338,4.7,6.0,80,0.00,,,0.00,WUHU216HW,2013-12-07 13:44:00,
2013-12-07 07:50:00,10.1,4.8,30.60,North,0,2.7,5.1,79,0.00,,,0.00,WUHU216HW,2013-12-07 13:50:00,
2013-12-07 07:55:00,10.3,5.0,30.60,NNW,348,3.1,6.3,79,0.00,,,0.00,WUHU216HW,2013-12-07 13:55:00,
2013-12-07 08:01:00,10.4,5.4,30.61,NNW,338,4.5,6.3,80,0.00,,,0.00,WUHU216HW,2013-12-07 14:01:00,
2013-12-07 08:06:00,10.8,5.8,30.60,NW,322,3.0,6.3,80,0.00,,,0.00,WUHU216HW,2013-12-07 14:06:00,
2013-12-07 08:12:00,11.0,5.7,30.60,NNW,337,3.2,5.4,79,0.00,,,0.00,WUHU216HW,2013-12-07 14:12:00,
2013-12-07 08:17:00,11.2,5.9,30.60,North,354,3.9,7.6,79,0.00,,,0.00,WUHU216HW,2013-12-07 14:17:00,
2013-12-07 08:23:00,11.3,6.0,30.60,NNW,344,4.2,7.6,79,0.00,,,0.00,WUHU216HW,2013-12-07 14:23:00,
2013-12-07 08:29:00,11.7,6.4,30.60,North,0,2.0,6.3,79,0.00,,,0.00,WUHU216HW,2013-12-07 14:29:00,
2013-12-07 08:36:00,12.2,6.9,30.61,NNE,23,3.6,7.2,79,0.00,,,0.00,WUHU216HW,2013-12-07 14:36:00,
2013-12-07 08:41:00,12.6,6.7,30.61,NNW,338,4.9,8.1,77,0.00,,,0.00,WUHU216HW,2013-12-07 14:41:00,
2013-12-07 08:46:00,12.8,6.8,30.61,NW,326,3.4,8.1,77,0.00,,,0.00,WUHU216HW,2013-12-07 14:46:00,
2013-12-07 08:53:00,13.3,7.4,30.62,NW,316,3.7,6.3,77,0.00,,,0.00,WUHU216HW,2013-12-07 14:53:00,
2013-12-07 08:58:00,13.5,7.3,30.62,WNW,293,4.0,4.7,76,0.00,,,0.00,WUHU216HW,2013-12-07 14:58:00,
2013-12-07 09:06:00,13.9,7.7,30.62,NNW,338,3.1,6.5,76,0.00,,,0.00,WUHU216HW,2013-12-07 15:06:00,
2013-12-07 09:12:00,14.0,7.6,30.63,NNW,338,4.3,5.8,75,0.00,,,0.00,WUHU216HW,2013-12-07 15:12:00,
2013-12-07 09:17:00,14.2,8.0,30.63,North,0,2.4,4.3,76,0.00,,,0.00,WUHU216HW,2013-12-07 15:17:00,
2013-12-07 09:22:00,14.8,8.3,30.63,North,8,2.9,6.0,75,0.00,,,0.00,WUHU216HW,2013-12-07 15:22:00,
2013-12-07 09:28:00,14.8,7.9,30.63,NNE,19,5.0,6.0,74,0.00,,,0.00,WUHU216HW,2013-12-07 15:28:00,
2013-12-07 09:34:00,15.1,8.3,30.63,North,356,2.6,6.0,74,0.00,,,0.00,WUHU216HW,2013-12-07 15:34:00,
2013-12-07 09:39:00,15.5,8.7,30.63,NNW,348,3.2,6.5,74,0.00,,,0.00,WUHU216HW,2013-12-07 15:39:00,
2013-12-07 09:45:00,15.8,8.6,30.62,NW,315,3.8,6.5,73,0.00,,,0.00,WUHU216HW,2013-12-07 15:45:00,
2013-12-07 09:50:00,16.2,8.7,30.62,NNW,345,4.2,6.5,72,0.00,,,0.00,WUHU216HW,2013-12-07 15:50:00,
2013-12-07 09:56:00,16.6,8.7,30.63,North,0,4.7,6.5,71,0.00,,,0.00,WUHU216HW,2013-12-07 15:56:00,
2013-12-07 10:01:00,16.9,9.1,30.63,NNW,338,4.3,5.4,71,0.00,,,0.00,WUHU216HW,2013-12-07 16:01:00,
2013-12-07 10:06:00,17.1,9.3,30.63,NNW,338,5.6,6.9,71,0.00,,,0.00,WUHU216HW,2013-12-07 16:06:00,
2013-12-07 10:11:00,17.5,9.4,30.63,North,351,2.9,6.9,70,0.00,,,0.00,WUHU216HW,2013-12-07 16:11:00,
2013-12-07 10:16:00,17.8,9.7,30.63,NNW,338,3.1,5.8,70,0.00,,,0.00,WUHU216HW,2013-12-07 16:16:00,
2013-12-07 10:22:00,18.0,8.8,30.63,NNE,17,6.4,7.2,67,0.00,,,0.00,WUHU216HW,2013-12-07 16:22:00,
2013-12-07 10:27:00,18.4,10.2,30.62,North,0,5.4,7.2,70,0.00,,,0.00,WUHU216HW,2013-12-07 16:27:00,
2013-12-07 10:33:00,18.9,9.3,30.62,NNW,338,4.7,7.4,66,0.00,,,0.00,WUHU216HW,2013-12-07 16:33:00,
2013-12-07 10:38:00,19.1,9.5,30.61,North,0,4.3,7.4,66,0.00,,,0.00,WUHU216HW,2013-12-07 16:38:00,
2013-12-07 10:43:00,19.1,9.1,30.62,North,3,5.7,6.9,65,0.00,,,0.00,WUHU216HW,2013-12-07 16:43:00,
2013-12-07 10:49:00,19.4,9.5,30.62,North,3,4.3,6.9,65,0.00,,,0.00,WUHU216HW,2013-12-07 16:49:00,
2013-12-07 10:54:00,19.8,9.5,30.62,North,0,4.0,7.6,64,0.00,,,0.00,WUHU216HW,2013-12-07 16:54:00,
2013-12-07 10:59:00,20.2,9.5,30.62,NNW,338,3.6,7.6,63,0.00,,,0.00,WUHU216HW,2013-12-07 16:59:00,
2013-12-07 11:04:00,20.2,8.8,30.61,North,0,5.7,6.0,61,0.00,,,0.00,WUHU216HW,2013-12-07 17:04:00,
2013-12-07 11:10:00,20.2,8.8,30.61,NNE,23,6.5,6.5,61,0.00,,,0.00,WUHU216HW,2013-12-07 17:10:00,
2013-12-07 11:15:00,20.5,9.2,30.61,NNW,338,5.1,6.5,61,0.00,,,0.00,WUHU216HW,2013-12-07 17:15:00,
2013-12-07 11:20:00,20.7,9.4,30.61,NNE,14,5.5,6.5,61,0.00,,,0.00,WUHU216HW,2013-12-07 17:20:00,
2013-12-07 11:25:00,20.7,8.6,30.61,North,0,4.7,7.6,59,0.00,,,0.00,WUHU216HW,2013-12-07 17:25:00,
2013-12-07 11:31:00,20.9,8.4,30.60,North,10,6.3,8.9,58,0.00,,,0.00,WUHU216HW,2013-12-07 17:31:00,
2013-12-07 11:37:00,21.1,8.9,30.60,North,5,3.3,8.9,59,0.00,,,0.00,WUHU216HW,2013-12-07 17:37:00,
2013-12-07 11:42:00,21.4,8.5,30.60,North,0,5.1,8.7,57,0.00,,,0.00,WUHU216HW,2013-12-07 17:42:00,
2013-12-07 11:48:00,21.8,8.4,30.59,NNE,23,4.5,6.3,56,0.00,,,0.00,WUHU216HW,2013-12-07 17:48:00,
2013-12-07 11:53:00,22.0,8.6,30.59,NNW,345,3.3,6.3,56,0.00,,,0.00,WUHU216HW,2013-12-07 17:53:00,
2013-12-07 11:59:00,22.0,7.7,30.59,North,358,6.4,7.6,54,0.00,,,0.00,WUHU216HW,2013-12-07 17:59:00,
2013-12-07 12:05:00,22.0,7.7,30.59,NNW,338,5.6,9.4,54,0.00,,,0.00,WUHU216HW,2013-12-07 18:05:00,
2013-12-07 12:10:00,22.1,8.4,30.59,NNE,23,9.6,9.6,55,0.00,,,0.00,WUHU216HW,2013-12-07 18:10:00,
2013-12-07 12:15:00,22.3,8.5,30.59,NE,45,4.7,9.6,55,0.00,,,0.00,WUHU216HW,2013-12-07 18:15:00,
2013-12-07 12:22:00,22.7,8.8,30.59,WNW,293,1.6,5.6,55,0.00,,,0.00,WUHU216HW,2013-12-07 18:22:00,
2013-12-07 12:29:00,22.9,9.0,30.59,NNE,23,1.8,6.3,55,0.00,,,0.00,WUHU216HW,2013-12-07 18:29:00,
2013-12-07 12:36:00,23.2,7.7,30.59,NNW,338,3.6,4.7,51,0.00,,,0.00,WUHU216HW,2013-12-07 18:36:00,
2013-12-07 12:43:00,23.0,8.4,30.58,North,0,1.6,4.9,53,0.00,,,0.00,WUHU216HW,2013-12-07 18:43:00,
2013-12-07 12:48:00,23.2,8.6,30.58,NNW,341,3.2,4.7,53,0.00,,,0.00,WUHU216HW,2013-12-07 18:48:00,
2013-12-07 12:53:00,23.4,8.7,30.58,NE,45,2.5,4.7,53,0.00,,,0.00,WUHU216HW,2013-12-07 18:53:00,
2013-12-07 13:01:00,23.4,8.7,30.58,NNW,338,4.0,5.4,53,0.00,,,0.00,WUHU216HW,2013-12-07 19:01:00,
2013-12-07 13:07:00,23.4,8.3,30.57,North,355,3.3,5.4,52,0.00,,,0.00,WUHU216HW,2013-12-07 19:07:00,
2013-12-07 13:12:00,23.6,8.1,30.58,North,0,3.7,4.5,51,0.00,,,0.00,WUHU216HW,2013-12-07 19:12:00,
2013-12-07 13:17:00,23.6,8.1,30.57,NNW,338,1.8,6.7,51,0.00,,,0.00,WUHU216HW,2013-12-07 19:17:00,
2013-12-07 13:23:00,23.8,9.1,30.57,North,0,5.6,6.7,53,0.00,,,0.00,WUHU216HW,2013-12-07 19:23:00,
2013-12-07 13:28:00,23.6,8.5,30.57,NNE,23,5.4,6.3,52,0.00,,,0.00,WUHU216HW,2013-12-07 19:28:00,
2013-12-07 13:33:00,23.8,8.6,30.57,North,352,3.6,6.3,52,0.00,,,0.00,WUHU216HW,2013-12-07 19:33:00,
2013-12-07 13:39:00,23.8,8.6,30.56,North,3,3.4,7.6,52,0.00,,,0.00,WUHU216HW,2013-12-07 19:39:00,
2013-12-07 13:45:00,23.8,8.3,30.56,North,358,4.2,7.6,51,0.00,,,0.00,WUHU216HW,2013-12-07 19:45:00,
2013-12-07 13:51:00,23.6,8.5,30.56,North,0,4.0,5.6,52,0.00,,,0.00,WUHU216HW,2013-12-07 19:51:00,
2013-12-07 13:56:00,23.8,8.3,30.56,NNW,345,3.5,4.7,51,0.00,,,0.00,WUHU216HW,2013-12-07 19:56:00,
2013-12-07 14:01:00,23.8,8.3,30.56,North,0,4.7,5.8,51,0.00,,,0.00,WUHU216HW,2013-12-07 20:01:00,
2013-12-07 14:07:00,23.8,8.3,30.56,North,10,2.3,5.8,51,0.00,,,0.00,WUHU216HW,2013-12-07 20:07:00,
2013-12-07 14:12:00,23.8,7.8,30.56,North,0,4.5,8.3,50,0.00,,,0.00,WUHU216HW,2013-12-07 20:12:00,
2013-12-07 14:17:00,23.8,7.8,30.56,North,355,3.9,8.3,50,0.00,,,0.00,WUHU216HW,2013-12-07 20:17:00,
2013-12-07 14:23:00,23.8,7.8,30.56,North,0,4.5,5.6,50,0.00,,,0.00,WUHU216HW,2013-12-07 20:23:00,
2013-12-07 14:28:00,23.8,7.4,30.55,NNW,338,4.5,6.3,49,0.00,,,0.00,WUHU216HW,2013-12-07 20:28:00,
2013-12-07 14:34:00,23.8,7.4,30.55,NNE,12,5.2,7.6,49,0.00,,,0.00,WUHU216HW,2013-12-07 20:34:00,
2013-12-07 14:40:00,23.8,7.8,30.55,North,8,2.8,8.5,50,0.00,,,0.00,WUHU216HW,2013-12-07 20:40:00,
2013-12-07 14:45:00,23.8,8.3,30.55,NNE,23,6.3,6.7,51,0.00,,,0.00,WUHU216HW,2013-12-07 20:45:00,
2013-12-07 14:50:00,23.6,7.2,30.55,NNW,331,4.9,9.2,49,0.00,,,0.00,WUHU216HW,2013-12-07 20:50:00,
2013-12-07 14:56:00,23.4,7.6,30.55,NE,45,2.5,9.2,50,0.00,,,0.00,WUHU216HW,2013-12-07 20:56:00,
2013-12-07 15:01:00,23.4,7.6,30.55,NNW,338,2.5,4.9,50,0.00,,,0.00,WUHU216HW,2013-12-07 21:01:00,
2013-12-07 15:10:00,23.4,7.6,30.54,North,0,4.7,4.7,50,0.00,,,0.00,WUHU216HW,2013-12-07 21:10:00,
2013-12-07 15:15:00,23.2,7.4,30.54,North,0,5.4,5.6,50,0.00,,,0.00,WUHU216HW,2013-12-07 21:15:00,
2013-12-07 15:21:00,23.2,7.4,30.54,North,349,4.4,6.3,50,0.00,,,0.00,WUHU216HW,2013-12-07 21:21:00,
2013-12-07 15:26:00,23.0,8.0,30.54,NNW,338,4.7,6.5,52,0.00,,,0.00,WUHU216HW,2013-12-07 21:26:00,
2013-12-07 15:32:00,23.0,8.0,30.54,NNE,23,4.5,6.5,52,0.00,,,0.00,WUHU216HW,2013-12-07 21:32:00,
2013-12-07 15:37:00,23.0,8.0,30.55,North,355,4.1,6.0,52,0.00,,,0.00,WUHU216HW,2013-12-07 21:37:00,
2013-12-07 15:44:00,22.9,7.8,30.55,NNE,23,4.0,5.6,52,0.00,,,0.00,WUHU216HW,2013-12-07 21:44:00,
2013-12-07 15:49:00,22.7,8.0,30.55,NNE,31,3.0,5.6,53,0.00,,,0.00,WUHU216HW,2013-12-07 21:49:00,
2013-12-07 15:55:00,22.7,8.0,30.55,North,0,5.6,5.6,53,0.00,,,0.00,WUHU216HW,2013-12-07 21:55:00,
2013-12-07 16:00:00,22.5,8.3,30.55,North,8,2.8,5.6,54,0.00,,,0.00,WUHU216HW,2013-12-07 22:00:00,
2013-12-07 16:06:00,22.3,8.5,30.55,NNW,338,2.9,4.9,55,0.00,,,0.00,WUHU216HW,2013-12-07 22:06:00,
2013-12-07 16:11:00,22.3,8.5,30.55,NNE,12,2.3,3.6,55,0.00,,,0.00,WUHU216HW,2013-12-07 22:11:00,
2013-12-07 16:17:00,22.0,8.2,30.55,NNE,23,3.6,3.6,55,0.00,,,0.00,WUHU216HW,2013-12-07 22:17:00,
2013-12-07 16:22:00,22.0,8.6,30.55,North,10,2.3,3.6,56,0.00,,,0.00,WUHU216HW,2013-12-07 22:22:00,
2013-12-07 16:27:00,21.8,8.4,30.55,North,5,2.1,3.6,56,0.00,,,0.00,WUHU216HW,2013-12-07 22:27:00,
2013-12-07 16:32:00,21.6,8.7,30.55,North,3,2.1,3.1,57,0.00,,,0.00,WUHU216HW,2013-12-07 22:32:00,
2013-12-07 16:37:00,21.4,9.3,30.55,North,8,2.1,3.4,59,0.00,,,0.00,WUHU216HW,2013-12-07 22:37:00,
2013-12-07 16:43:00,21.2,9.1,30.56,North,4,2.6,3.4,59,0.00,,,0.00,WUHU216HW,2013-12-07 22:43:00,
2013-12-07 16:49:00,21.1,9.4,30.56,North,0,1.8,3.4,60,0.00,,,0.00,WUHU216HW,2013-12-07 22:49:00,
2013-12-07 16:55:00,20.7,9.4,30.56,North,0,3.4,3.4,61,0.00,,,0.00,WUHU216HW,2013-12-07 22:55:00,
2013-12-07 17:00:00,20.5,9.2,30.56,North,0,2.0,3.4,61,0.00,,,0.00,WUHU216HW,2013-12-07 23:00:00,
2013-12-07 17:05:00,20.5,9.2,30.57,North,0,2.7,3.4,61,0.00,,,0.00,WUHU216HW,2013-12-07 23:05:00,
2013-12-07 17:10:00,20.2,8.8,30.57,NNW,338,1.3,2.9,61,0.00,,,0.00,WUHU216HW,2013-12-07 23:10:00,
2013-12-07 17:15:00,20.0,9.0,30.57,North,0,0.7,1.8,62,0.00,,,0.00,WUHU216HW,2013-12-07 23:15:00,
2013-12-07 17:20:00,19.8,8.8,30.57,North,0,0.9,1.8,62,0.00,,,0.00,WUHU216HW,2013-12-07 23:20:00,
2013-12-07 17:26:00,19.8,9.1,30.57,NNW,338,1.3,1.3,63,0.00,,,0.00,WUHU216HW,2013-12-07 23:26:00,
2013-12-07 17:31:00,19.4,8.7,30.57,NNW,338,0.9,1.3,63,0.00,,,0.00,WUHU216HW,2013-12-07 23:31:00,
2013-12-07 17:37:00,19.3,8.9,30.57,North,0,1.6,1.6,64,0.00,,,0.00,WUHU216HW,2013-12-07 23:37:00,
2013-12-07 17:42:00,19.1,9.1,30.57,NNE,14,0.6,1.8,65,0.00,,,0.00,WUHU216HW,2013-12-07 23:42:00,
2013-12-07 17:47:00,18.9,9.0,30.57,North,0,0.9,1.8,65,0.00,,,0.00,WUHU216HW,2013-12-07 23:47:00,
2013-12-07 17:52:00,18.7,9.2,30.57,North,7,0.8,1.3,66,0.00,,,0.00,WUHU216HW,2013-12-07 23:52:00,
2013-12-07 17:58:00,18.4,8.8,30.56,NNE,23,1.8,2.7,66,0.00,,,0.00,WUHU216HW,2013-12-07 23:58:00,
2013-12-07 18:04:00,18.4,9.2,30.56,North,0,1.0,2.7,67,0.00,,,0.00,WUHU216HW,2013-12-08 00:04:00,
2013-12-07 18:09:00,18.2,9.0,30.56,North,0,1.3,2.0,67,0.00,,,0.00,WUHU216HW,2013-12-08 00:09:00,
2013-12-07 18:14:00,18.0,8.8,30.55,NNE,23,1.7,2.2,67,0.00,,,0.00,WUHU216HW,2013-12-08 00:14:00,
2013-12-07 18:19:00,17.6,8.8,30.55,North,0,2.5,2.5,68,0.00,,,0.00,WUHU216HW,2013-12-08 00:19:00,
2013-12-07 18:25:00,17.6,8.8,30.55,North,11,1.6,3.4,68,0.00,,,0.00,WUHU216HW,2013-12-08 00:25:00,
2013-12-07 18:30:00,17.5,8.6,30.55,NNE,19,2.0,3.4,68,0.00,,,0.00,WUHU216HW,2013-12-08 00:30:00,
2013-12-07 18:35:00,17.5,9.0,30.55,NNE,23,1.9,3.1,69,0.00,,,0.00,WUHU216HW,2013-12-08 00:35:00,
2013-12-07 18:40:00,17.3,8.8,30.55,North,0,1.8,3.1,69,0.00,,,0.00,WUHU216HW,2013-12-08 00:40:00,
2013-12-07 18:45:00,17.3,8.8,30.55,NNE,23,1.8,2.7,69,0.00,,,0.00,WUHU216HW,2013-12-08 00:45:00,
2013-12-07 18:50:00,17.1,8.6,30.55,NNE,23,1.6,2.7,69,0.00,,,0.00,WUHU216HW,2013-12-08 00:50:00,
2013-12-07 18:56:00,17.1,9.0,30.55,NNE,23,2.2,3.1,70,0.00,,,0.00,WUHU216HW,2013-12-08 00:56:00,
2013-12-07 19:01:00,16.9,8.8,30.55,NNE,23,1.7,3.1,70,0.00,,,0.00,WUHU216HW,2013-12-08 01:01:00,
2013-12-07 19:07:00,16.9,8.8,30.55,NNE,16,0.6,2.2,70,0.00,,,0.00,WUHU216HW,2013-12-08 01:07:00,
2013-12-07 19:13:00,16.7,8.6,30.55,NNE,23,1.1,1.8,70,0.00,,,0.00,WUHU216HW,2013-12-08 01:13:00,
2013-12-07 19:18:00,16.7,8.6,30.55,NNE,23,1.3,1.8,70,0.00,,,0.00,WUHU216HW,2013-12-08 01:18:00,
2013-12-07 19:23:00,16.7,8.6,30.55,NNE,23,0.6,1.8,70,0.00,,,0.00,WUHU216HW,2013-12-08 01:23:00,
2013-12-07 19:29:00,16.7,8.6,30.55,NE,45,0.9,2.0,70,0.00,,,0.00,WUHU216HW,2013-12-08 01:29:00,
2013-12-07 19:34:00,16.7,8.9,30.54,NE,45,1.8,2.0,71,0.00,,,0.00,WUHU216HW,2013-12-08 01:34:00,
2013-12-07 19:39:00,16.6,8.5,30.53,NE,40,1.8,2.0,70,0.00,,,0.00,WUHU216HW,2013-12-08 01:39:00,
2013-12-07 19:45:00,16.6,8.5,30.53,NNE,23,3.1,3.1,70,0.00,,,0.00,WUHU216HW,2013-12-08 01:45:00,
2013-12-07 19:52:00,16.7,8.6,30.52,NE,45,2.2,3.4,70,0.00,,,0.00,WUHU216HW,2013-12-08 01:52:00,
2013-12-07 19:57:00,16.7,8.6,30.52,NNE,30,2.2,3.4,70,0.00,,,0.00,WUHU216HW,2013-12-08 01:57:00,
2013-12-07 20:02:00,16.6,8.5,30.52,NE,35,2.1,3.4,70,0.00,,,0.00,WUHU216HW,2013-12-08 02:02:00,
2013-12-07 20:08:00,16.6,8.5,30.52,NNE,23,1.3,3.4,70,0.00,,,0.00,WUHU216HW,2013-12-08 02:08:00,
2013-12-07 20:13:00,16.6,8.5,30.52,NE,45,1.1,2.7,70,0.00,,,0.00,WUHU216HW,2013-12-08 02:13:00,
2013-12-07 20:18:00,16.6,8.1,30.52,NE,56,1.5,2.7,69,0.00,,,0.00,WUHU216HW,2013-12-08 02:18:00,
2013-12-07 20:23:00,16.6,8.5,30.51,NE,34,1.4,2.9,70,0.00,,,0.00,WUHU216HW,2013-12-08 02:23:00,
2013-12-07 20:28:00,16.4,8.3,30.51,NNE,23,3.8,3.8,70,0.00,,,0.00,WUHU216HW,2013-12-08 02:28:00,
2013-12-07 20:34:00,16.4,8.3,30.50,NNE,23,2.3,4.3,70,0.00,,,0.00,WUHU216HW,2013-12-08 02:34:00,
2013-12-07 20:40:00,16.4,7.9,30.50,NNE,23,3.6,4.3,69,0.00,,,0.00,WUHU216HW,2013-12-08 02:40:00,
2013-12-07 20:46:00,16.4,8.3,30.50,NNE,23,1.8,4.3,70,0.00,,,0.00,WUHU216HW,2013-12-08 02:46:00,
2013-12-07 20:52:00,16.2,8.1,30.50,NNE,15,3.5,4.9,70,0.00,,,0.00,WUHU216HW,2013-12-08 02:52:00,
2013-12-07 20:57:00,16.2,8.1,30.49,NNE,24,3.6,6.3,70,0.00,,,0.00,WUHU216HW,2013-12-08 02:57:00,
2013-12-07 21:03:00,16.4,8.6,30.49,NNE,33,5.1,6.3,71,0.00,,,0.00,WUHU216HW,2013-12-08 03:03:00,
2013-12-07 21:08:00,16.4,8.6,30.48,NE,36,5.4,6.5,71,0.00,,,0.00,WUHU216HW,2013-12-08 03:08:00,
2013-12-07 21:14:00,16.4,8.6,30.48,NE,46,3.3,6.5,71,0.00,,,0.00,WUHU216HW,2013-12-08 03:14:00,
2013-12-07 21:19:00,16.4,8.6,30.48,NE,37,2.9,6.0,71,0.00,,,0.00,WUHU216HW,2013-12-08 03:19:00,
2013-12-07 21:25:00,16.6,8.7,30.48,NNE,26,2.8,6.0,71,0.00,,,0.00,WUHU216HW,2013-12-08 03:25:00,
2013-12-07 21:30:00,16.6,8.7,30.48,NNE,23,3.4,4.0,71,0.00,,,0.00,WUHU216HW,2013-12-08 03:30:00,
2013-12-07 21:37:00,16.7,8.9,30.48,NNE,13,2.5,6.5,71,0.00,,,0.00,WUHU216HW,2013-12-08 03:37:00,
2013-12-07 21:42:00,16.7,8.9,30.48,NE,45,2.0,4.7,71,0.00,,,0.00,WUHU216HW,2013-12-08 03:42:00,
2013-12-07 21:48:00,16.9,9.1,30.48,NNE,25,3.8,6.3,71,0.00,,,0.00,WUHU216HW,2013-12-08 03:48:00,
2013-12-07 21:53:00,16.9,9.1,30.48,NNE,23,2.9,6.3,71,0.00,,,0.00,WUHU216HW,2013-12-08 03:53:00,
2013-12-07 21:59:00,17.1,9.3,30.47,NNE,32,3.0,4.0,71,0.00,,,0.00,WUHU216HW,2013-12-08 03:59:00,
2013-12-07 22:05:00,17.1,9.3,30.47,NE,55,1.9,4.7,71,0.00,,,0.00,WUHU216HW,2013-12-08 04:05:00,
2013-12-07 22:10:00,17.3,9.5,30.48,ENE,68,1.8,4.7,71,0.00,,,0.00,WUHU216HW,2013-12-08 04:10:00,
2013-12-07 22:15:00,17.3,9.5,30.48,NE,45,1.6,3.6,71,0.00,,,0.00,WUHU216HW,2013-12-08 04:15:00,
2013-12-07 22:21:00,17.3,9.7,30.48,NNE,23,2.7,3.6,72,0.00,,,0.00,WUHU216HW,2013-12-08 04:21:00,
2013-12-07 22:26:00,17.5,9.9,30.49,ENE,64,0.9,2.7,72,0.00,,,0.00,WUHU216HW,2013-12-08 04:26:00,
2013-12-07 22:32:00,17.5,9.9,30.49,ENE,73,1.1,1.8,72,0.00,,,0.00,WUHU216HW,2013-12-08 04:32:00,
2013-12-07 22:37:00,17.6,10.1,30.48,NE,54,1.4,3.4,72,0.00,,,0.00,WUHU216HW,2013-12-08 04:37:00,
2013-12-07 22:43:00,17.6,10.5,30.48,NE,45,2.2,2.7,73,0.00,,,0.00,WUHU216HW,2013-12-08 04:43:00,
2013-12-07 22:50:00,17.6,10.5,30.49,NNE,23,3.1,3.1,73,0.00,,,0.00,WUHU216HW,2013-12-08 04:50:00,
2013-12-07 22:56:00,17.6,10.5,30.48,NNE,23,2.9,3.4,73,0.00,,,0.00,WUHU216HW,2013-12-08 04:56:00,
2013-12-07 23:02:00,17.8,10.9,30.49,NNE,33,0.6,3.6,74,0.00,,,0.00,WUHU216HW,2013-12-08 05:02:00,
2013-12-07 23:08:00,17.8,11.2,30.50,NNE,23,1.3,3.1,75,0.00,,,0.00,WUHU216HW,2013-12-08 05:08:00,
2013-12-07 23:14:00,17.8,11.4,30.50,NNE,23,1.8,1.8,76,0.00,,,0.00,WUHU216HW,2013-12-08 05:14:00,
2013-12-07 23:19:00,18.0,11.9,30.50,NNE,23,1.3,2.5,77,0.00,,,0.00,WUHU216HW,2013-12-08 05:19:00,
2013-12-07 23:25:00,18.0,11.9,30.49,NNE,18,1.4,2.7,77,0.00,,,0.00,WUHU216HW,2013-12-08 05:25:00,
2013-12-07 23:31:00,18.0,12.3,30.50,NNE,23,2.5,2.7,78,0.00,,,0.00,WUHU216HW,2013-12-08 05:31:00,
2013-12-07 23:36:00,18.0,12.3,30.50,NNE,17,1.5,3.4,78,0.00,,,0.00,WUHU216HW,2013-12-08 05:36:00,
2013-12-07 23:42:00,18.0,12.3,30.50,North,0,0.9,3.1,78,0.00,,,0.00,WUHU216HW,2013-12-08 05:42:00,
2013-12-07 23:47:00,18.2,12.7,30.49,NNE,19,2.7,3.4,79,0.00,,,0.00,WUHU216HW,2013-12-08 05:47:00,
2013-12-07 23:52:00,18.0,12.5,30.49,NNE,23,1.6,3.4,79,0.00,,,0.00,WUHU216HW,2013-12-08 05:52:00,
2013-12-07 23:57:00,18.2,13.0,30.48,North,0,2.7,3.8,80,0.00,,,0.00,WUHU216HW,2013-12-08 05:57:00,